Location: Rometta
(44.2000°N, 10.0500°E)
Time: 22:16:02
(UTC+00:00)

ARGOS - Pass Details

Date: 20 January 2021
Orbit: 821 x 834 km, 98.4° (Epoch: 04 March)

Event Time Altitude Azimuth Distance (km) Brightness Sun altitude
Rises 17:29:27 0° 138° (SE) 3,342 6.0 -13.5°
Reaches altitude 10° 17:31:58 10° 129° (SE) 2,415 5.2 -13.9°
Maximum altitude 17:36:44 34° 66° (ENE) 1,331 3.7 -14.8°
Drops below altitude 10° 17:41:31 10° 3° (N) 2,434 5.4 -15.6°
Sets 17:44:04 0° 355° (N) 3,374 6.3 -16.0°
